This demonstration page uses our WeatherBlox Daily Observations layout. Learn more.

Left ArrowRight Arrow

Hourly Observations for February 10, 2015

Temp ( °F °C ) Dew Point ( °F °C ) Humidity (%) Winds ( mph kmh ) Pressure ( in mb ) Visibility ( mi km ) Precip ( " mm )
12:51 am 00:51 Clear 48 8.9 38 3.3 68 68 N N/A 29.94 1014 10 16 N/A
1:51 am 01:51 Clear 49 9.4 37 2.8 64 64 SSE 6 9 29.94 1014 10 16 N/A
2:51 am 02:51 Clear 46 7.8 37 2.8 71 71 N N/A 29.93 1014 10 16 N/A
3:51 am 03:51 Clear 45 7.2 37 2.8 74 74 N N/A 29.93 1013 10 16 N/A
4:51 am 04:51 Clear 45 7.2 37 2.8 74 74 N N/A 29.94 1014 10 16 N/A
5:51 am 05:51 Clear 41 5 36 2.2 82 82 N N/A 29.95 1014 10 16 N/A
6:51 am 06:51 Clear 41 5 36 2.2 82 82 N N/A 29.98 1015 10 16 N/A
7:51 am 07:51 Sunny 46 7.8 37 2.8 71 71 N N/A 29.99 1016 10 16 N/A
8:51 am 08:51 Sunny 51 10.6 37 2.8 59 59 SSE 5 7 29.98 1015 10 16 N/A
9:51 am 09:51 Sunny 59 15 37 2.8 44 44 N N/A 29.97 1015 10 16 N/A
10:51 am 10:51 Sunny 64 17.8 35 1.7 34 34 N N/A 29.97 1015 10 16 N/A
11:51 am 11:51 Sunny 68 20 36 2.2 31 31 NW 5 7 29.94 1014 10 16 N/A
12:51 pm 12:51 Sunny 70 21.1 35 1.7 28 28 VRB 6 9 29.91 1013 10 16 N/A
1:51 pm 13:51 Sunny 74 23.3 35 1.7 24 24 W 9 15 29.86 1011 10 16 N/A
2:51 pm 14:51 Sunny 76 24.4 33 0.6 21 21 WNW 9 15 29.83 1010 10 16 N/A
3:51 pm 15:51 Sunny 77 25 21 -6.1 12 12 W 8 13 29.81 1009 10 16 N/A
4:51 pm 16:51 Sunny 77 25 22 -5.6 13 13 NW 15 24 29.80 1009 10 16 N/A
5:51 pm 17:51 Sunny 71 21.7 24 -4.4 17 17 NW 8 13 29.83 1010 10 16 N/A
6:51 pm 18:51 Clear 65 18.3 27 -2.8 24 24 NW 13 20 29.86 1011 10 16 N/A
7:51 pm 19:51 Clear 63 17.2 24 -4.4 23 23 NW 12 19 29.86 1011 10 16 N/A
8:51 pm 20:51 Clear 63 17.2 24 -4.4 23 23 NNW 14 22 29.87 1012 10 16 N/A
9:51 pm 21:51 Clear 59 15 27 -2.8 29 29 NNW 7 11 29.88 1012 10 16 N/A
10:51 pm 22:51 Clear 54 12.2 30 -1.1 40 40 NW 10 17 29.88 1012 10 16 N/A
11:51 pm 23:51 Clear 52 11.1 32 undefined 47 47 NW 9 15 29.89 1012 10 16 N/A

Powered by AerisWeather